| time (UTC) | temp C | wind direction | speed KPH | gust KPH | rain 1hr cm | rain 24hr cm | rain mn cm | humidity % | barometer mb |
| 20260508063436 | 7 | 217 | 1.6 | 3.2 | 0.00 | 0.03 | 0.00 | 92 | 1017.0 |
| 20260508062936 | 7 | 231 | 0.0 | 1.6 | 0.00 | 0.03 | 0.00 | 92 | 1017.0 |
| 20260508062436 | 7 | 229 | 1.6 | 3.2 | 0.00 | 0.03 | 0.00 | 92 | 1017.0 |
| 20260508061935 | 7 | 301 | 1.6 | 3.2 | 0.00 | 0.03 | 0.00 | 92 | 1016.9 |
| 20260508061435 | 7 | 248 | 1.6 | 3.2 | 0.00 | 0.03 | 0.00 | 92 | 1016.9 |
| 20260508060936 | 7 | 306 | 1.6 | 3.2 | 0.00 | 0.03 | 0.00 | 92 | 1016.8 |
| 20260508060435 | 7 | 271 | 1.6 | 3.2 | 0.00 | 0.03 | 0.00 | 92 | 1016.7 |
| 20260508055936 | 7 | 129 | 0.0 | 3.2 | 0.00 | 0.03 | 0.00 | 92 | 1016.7 |
| 20260508055435 | 7 | 124 | 0.0 | 1.6 | 0.00 | 0.03 | 0.00 | 92 | 1016.8 |
| 20260508054935 | 7 | 164 | 0.0 | 1.6 | 0.00 | 0.03 | 0.00 | 92 | 1016.8 |
| 20260508054436 | 7 | 188 | 0.0 | 0.0 | 0.00 | 0.03 | 0.00 | 92 | 1016.7 |
| 20260508053936 | 7 | 205 | 0.0 | 1.6 | 0.00 | 0.03 | 0.00 | 92 | 1016.7 |
| 20260508053436 | 7 | 311 | 0.0 | 3.2 | 0.00 | 0.03 | 0.00 | 92 | 1016.7 |
| 20260508052935 | 7 | 253 | 0.0 | 1.6 | 0.00 | 0.03 | 0.00 | 92 | 1016.7 |
| 20260508052435 | 7 | 232 | 0.0 | 1.6 | 0.00 | 0.03 | 0.00 | 92 | 1016.6 |
| 20260508051934 | 7 | 202 | 0.0 | 3.2 | 0.00 | 0.03 | 0.00 | 92 | 1016.7 |
| 20260508051435 | 7 | 227 | 0.0 | 1.6 | 0.00 | 0.03 | 0.00 | 92 | 1016.6 |
| 20260508050935 | 6 | 202 | 1.6 | 3.2 | 0.00 | 0.03 | 0.00 | 92 | 1016.6 |
| 20260508050435 | 6 | 238 | 0.0 | 1.6 | 0.00 | 0.03 | 0.00 | 92 | 1016.6 |
| 20260508045936 | 6 | 238 | 0.0 | 1.6 | 0.00 | 0.08 | 0.00 | 92 | 1016.5 |
| 20260508045435 | 6 | 133 | 0.0 | 1.6 | 0.00 | 0.08 | 0.00 | 92 | 1016.5 |
| 20260508044935 | 5 | 132 | 0.0 | 1.6 | 0.00 | 0.08 | 0.00 | 91 | 1016.5 |
| 20260508044435 | 5 | 132 | 1.6 | 1.6 | 0.00 | 0.08 | 0.00 | 91 | 1016.5 |
| 20260508043935 | 5 | 137 | 0.0 | 1.6 | 0.00 | 0.08 | 0.00 | 91 | 1016.6 |
| 20260508043436 | 5 | 137 | 0.0 | 1.6 | 0.00 | 0.08 | 0.00 | 91 | 1016.5 |
| 20260508042936 | 5 | 140 | 0.0 | 0.0 | 0.00 | 0.08 | 0.00 | 91 | 1016.6 |
| 20260508042435 | 5 | 140 | 0.0 | 1.6 | 0.00 | 0.08 | 0.00 | 91 | 1016.5 |
| 20260508041936 | 5 | 140 | 0.0 | 0.0 | 0.00 | 0.08 | 0.00 | 91 | 1016.5 |
| 20260508041435 | 5 | 140 | 0.0 | 0.0 | 0.00 | 0.08 | 0.00 | 91 | 1016.5 |
| 20260508040936 | 5 | 141 | 0.0 | 0.0 | 0.00 | 0.08 | 0.00 | 91 | 1016.4 |
| 20260508040436 | 5 | 141 | 0.0 | 1.6 | 0.00 | 0.08 | 0.00 | 91 | 1016.3 |
| 20260508035935 | 5 | 141 | 1.6 | 3.2 | 0.00 | 0.10 | 0.00 | 91 | 1016.3 |
| 20260508035436 | 5 | 141 | 0.0 | 1.6 | 0.00 | 0.10 | 0.00 | 90 | 1016.3 |
| 20260508034936 | 5 | 141 | 0.0 | 0.0 | 0.00 | 0.10 | 0.00 | 90 | 1016.3 |
| 20260508034436 | 5 | 141 | 0.0 | 1.6 | 0.00 | 0.10 | 0.00 | 90 | 1016.3 |
| 20260508033935 | 5 | 141 | 0.0 | 0.0 | 0.00 | 0.10 | 0.00 | 90 | 1016.2 |
| 20260508033436 | 5 | 141 | 0.0 | 0.0 | 0.00 | 0.10 | 0.00 | 90 | 1016.2 |
| 20260508032936 | 5 | 141 | 0.0 | 1.6 | 0.00 | 0.10 | 0.00 | 90 | 1016.2 |
| 20260508032435 | 5 | 142 | 0.0 | 1.6 | 0.00 | 0.10 | 0.00 | 90 | 1016.2 |
| 20260508031936 | 5 | 142 | 0.0 | 0.0 | 0.00 | 0.10 | 0.00 | 90 | 1016.2 |
| 20260508031209 | 5 | 142 | 0.0 | 1.6 | 0.00 | 0.10 | 0.00 | 90 | 1016.2 |
| 20260508030709 | 5 | 142 | 0.0 | 0.0 | 0.00 | 0.10 | 0.00 | 90 | 1016.1 |
| 20260508030210 | 5 | 146 | 0.0 | 0.0 | 0.00 | 0.10 | 0.00 | 90 | 1016.1 |
| 20260508025710 | 5 | 146 | 0.0 | 0.0 | 0.00 | 0.18 | 0.00 | 90 | 1016.2 |
| 20260508025210 | 5 | 146 | 0.0 | 1.6 | 0.00 | 0.18 | 0.00 | 90 | 1016.1 |
| 20260508024710 | 5 | 128 | 0.0 | 1.6 | 0.00 | 0.18 | 0.00 | 90 | 1016.1 |
| 20260508024210 | 5 | 128 | 0.0 | 1.6 | 0.00 | 0.18 | 0.00 | 90 | 1016.1 |
| 20260508023710 | 5 | 128 | 0.0 | 1.6 | 0.00 | 0.18 | 0.00 | 90 | 1016.1 |
| 20260508023209 | 5 | 128 | 0.0 | 0.0 | 0.00 | 0.18 | 0.00 | 90 | 1016.2 |
| 20260508022711 | 5 | 128 | 0.0 | 1.6 | 0.00 | 0.18 | 0.00 | 90 | 1016.1 |
| 20260508022210 | 5 | 128 | 0.0 | 1.6 | 0.00 | 0.18 | 0.00 | 90 | 1016.2 |
| 20260508021708 | 5 | 128 | 0.0 | 0.0 | 0.00 | 0.18 | 0.00 | 90 | 1016.2 |
| 20260508021210 | 5 | 128 | 0.0 | 0.0 | 0.00 | 0.18 | 0.00 | 90 | 1016.1 |
| 20260508020709 | 5 | 128 | 0.0 | 3.2 | 0.00 | 0.18 | 0.00 | 90 | 1016.2 |
| 20260508020208 | 5 | 119 | 0.0 | 1.6 | 0.00 | 0.18 | 0.00 | 90 | 1016.1 |
| 20260508015709 | 5 | 123 | 0.0 | 1.6 | 0.00 | 0.23 | 0.00 | 90 | 1016.1 |
| 20260508015209 | 6 | 123 | 0.0 | 0.0 | 0.00 | 0.23 | 0.00 | 90 | 1016.1 |
| 20260508014710 | 6 | 123 | 0.0 | 0.0 | 0.00 | 0.23 | 0.00 | 90 | 1016.0 |
| 20260508014208 | 6 | 123 | 0.0 | 0.0 | 0.00 | 0.23 | 0.00 | 90 | 1016.0 |
| 20260508013710 | 6 | 123 | 0.0 | 0.0 | 0.00 | 0.23 | 0.00 | 90 | 1016.0 |
| 20260508013210 | 6 | 123 | 0.0 | 1.6 | 0.00 | 0.23 | 0.00 | 90 | 1016.0 |
| 20260508012710 | 6 | 123 | 0.0 | 1.6 | 0.00 | 0.23 | 0.00 | 90 | 1015.9 |
| 20260508012210 | 6 | 123 | 1.6 | 3.2 | 0.00 | 0.23 | 0.00 | 90 | 1015.9 |
| 20260508011710 | 6 | 107 | 0.0 | 3.2 | 0.00 | 0.23 | 0.00 | 90 | 1015.9 |
| 20260508011209 | 6 | 105 | 0.0 | 0.0 | 0.00 | 0.23 | 0.00 | 90 | 1015.9 |
| 20260508010710 | 6 | 105 | 0.0 | 0.0 | 0.00 | 0.23 | 0.00 | 90 | 1015.9 |
| 20260508010209 | 6 | 105 | 0.0 | 1.6 | 0.00 | 0.23 | 0.00 | 90 | 1015.8 |
| 20260508005710 | 6 | 95 | 0.0 | 1.6 | 0.00 | 0.33 | 0.00 | 90 | 1015.9 |
| 20260508005209 | 6 | 86 | 0.0 | 0.0 | 0.00 | 0.33 | 0.00 | 90 | 1015.8 |
| 20260508004708 | 6 | 86 | 0.0 | 1.6 | 0.00 | 0.33 | 0.00 | 89 | 1015.9 |
| 20260508004210 | 6 | 52 | 0.0 | 1.6 | 0.00 | 0.33 | 0.00 | 90 | 1016.0 |
| 20260508003709 | 6 | 110 | 0.0 | 1.6 | 0.00 | 0.33 | 0.00 | 90 | 1016.0 |
| 20260508003208 | 6 | 135 | 0.0 | 0.0 | 0.00 | 0.33 | 0.00 | 89 | 1016.1 |
| 20260508002710 | 6 | 135 | 0.0 | 3.2 | 0.00 | 0.33 | 0.00 | 89 | 1016.0 |
| 20260508002210 | 6 | 135 | 1.6 | 3.2 | 0.00 | 0.33 | 0.00 | 89 | 1016.1 |
| 20260508001708 | 6 | 110 | 0.0 | 1.6 | 0.00 | 0.33 | 0.00 | 89 | 1016.0 |
| 20260508001209 | 6 | 132 | 0.0 | 0.0 | 0.00 | 0.33 | 0.00 | 89 | 1016.0 |
| 20260508000708 | 6 | 132 | 0.0 | 0.0 | 0.00 | 0.33 | 0.00 | 89 | 1016.1 |
| 20260508000212 | 6 | 132 | 0.0 | 1.6 | 0.00 | 0.33 | 0.00 | 89 | 1016.1 |
| 20260507235710 | 6 | 149 | 0.0 | 0.0 | 0.00 | 0.43 | 0.00 | 89 | 1016.1 |
| 20260507235208 | 7 | 149 | 1.6 | 1.6 | 0.00 | 0.43 | 0.00 | 89 | 1016.2 |
| 20260507234709 | 7 | 142 | 0.0 | 1.6 | 0.00 | 0.43 | 0.00 | 89 | 1016.2 |
| 20260507234208 | 7 | 155 | 0.0 | 1.6 | 0.00 | 0.43 | 0.00 | 89 | 1016.2 |
| 20260507233710 | 7 | 194 | 0.0 | 0.0 | 0.00 | 0.43 | 0.00 | 89 | 1016.3 |
| 20260507233209 | 7 | 194 | 0.0 | 0.0 | 0.00 | 0.43 | 0.00 | 89 | 1016.3 |
| 20260507232709 | 7 | 192 | 0.0 | 3.2 | 0.00 | 0.43 | 0.00 | 89 | 1016.5 |
| 20260507232209 | 7 | 122 | 1.6 | 1.6 | 0.00 | 0.43 | 0.00 | 89 | 1016.5 |
| 20260507231709 | 7 | 95 | 0.0 | 1.6 | 0.00 | 0.43 | 0.00 | 89 | 1016.5 |
| 20260507231209 | 7 | 85 | 0.0 | 1.6 | 0.00 | 0.43 | 0.00 | 89 | 1016.5 |
| 20260507230709 | 7 | 93 | 0.0 | 1.6 | 0.00 | 0.43 | 0.00 | 88 | 1016.5 |
| 20260507230209 | 7 | 92 | 0.0 | 1.6 | 0.00 | 0.43 | 0.00 | 88 | 1016.6 |
| 20260507225711 | 7 | 39 | 0.0 | 3.2 | 0.00 | 0.48 | 0.00 | 88 | 1016.6 |
| 20260507225209 | 7 | 32 | 1.6 | 3.2 | 0.00 | 0.48 | 0.00 | 88 | 1016.6 |
| 20260507224710 | 7 | 17 | 0.0 | 1.6 | 0.00 | 0.48 | 0.00 | 88 | 1016.7 |
| 20260507224209 | 7 | 51 | 1.6 | 1.6 | 0.00 | 0.48 | 0.00 | 88 | 1016.7 |
| 20260507223709 | 7 | 101 | 0.0 | 3.2 | 0.00 | 0.48 | 0.00 | 88 | 1016.7 |
| 20260507223210 | 7 | 147 | 0.0 | 1.6 | 0.00 | 0.48 | 0.00 | 88 | 1016.7 |
| 20260507222710 | 7 | 156 | 0.0 | 1.6 | 0.00 | 0.48 | 0.00 | 88 | 1016.8 |
| 20260507222209 | 8 | 159 | 0.0 | 0.0 | 0.00 | 0.48 | 0.00 | 88 | 1016.8 |
| 20260507221709 | 8 | 159 | 1.6 | 3.2 | 0.00 | 0.48 | 0.00 | 88 | 1016.7 |
| 20260507221210 | 8 | 134 | 1.6 | 3.2 | 0.00 | 0.48 | 0.00 | 88 | 1016.7 |
| 20260507220709 | 8 | 101 | 0.0 | 0.0 | 0.00 | 0.48 | 0.00 | 88 | 1016.7 |
| 20260507220210 | 8 | 101 | 1.6 | 1.6 | 0.00 | 0.48 | 0.00 | 87 | 1016.6 |
| 20260507215709 | 8 | 36 | 0.0 | 1.6 | 0.00 | 0.56 | 0.56 | 88 | 1016.6 |
| 20260507215209 | 8 | 36 | 0.0 | 1.6 | 0.00 | 0.56 | 0.56 | 88 | 1016.6 |
| 20260507214709 | 8 | 80 | 0.0 | 1.6 | 0.00 | 0.56 | 0.56 | 88 | 1016.5 |
| 20260507214210 | 8 | 109 | 0.0 | 3.2 | 0.00 | 0.56 | 0.56 | 88 | 1016.5 |
| 20260507213709 | 8 | 146 | 0.0 | 0.0 | 0.00 | 0.56 | 0.56 | 87 | 1016.5 |
| 20260507213209 | 8 | 153 | 0.0 | 1.6 | 0.00 | 0.56 | 0.56 | 87 | 1016.5 |
| 20260507212710 | 8 | 154 | 0.0 | 1.6 | 0.00 | 0.56 | 0.56 | 87 | 1016.5 |
| 20260507212209 | 8 | 160 | 0.0 | 0.0 | 0.00 | 0.56 | 0.56 | 87 | 1016.5 |
| 20260507211710 | 8 | 161 | 0.0 | 0.0 | 0.00 | 0.56 | 0.56 | 87 | 1016.5 |
| 20260507211209 | 8 | 161 | 0.0 | 1.6 | 0.00 | 0.56 | 0.56 | 87 | 1016.5 |
| 20260507210710 | 8 | 159 | 0.0 | 1.6 | 0.00 | 0.56 | 0.56 | 86 | 1016.5 |
| 20260507210208 | 8 | 160 | 0.0 | 3.2 | 0.00 | 0.56 | 0.56 | 86 | 1016.4 |
| 20260507205710 | 8 | 145 | 0.0 | 1.6 | 0.00 | 0.69 | 0.56 | 86 | 1016.5 |
| 20260507205209 | 8 | 145 | 0.0 | 0.0 | 0.00 | 0.69 | 0.56 | 86 | 1016.5 |
| 20260507204709 | 8 | 145 | 0.0 | 1.6 | 0.00 | 0.69 | 0.56 | 85 | 1016.5 |
| 20260507204209 | 8 | 145 | 1.6 | 3.2 | 0.00 | 0.69 | 0.56 | 85 | 1016.5 |
| 20260507203709 | 8 | 138 | 0.0 | 1.6 | 0.00 | 0.69 | 0.56 | 85 | 1016.4 |
| 20260507203209 | 9 | 138 | 0.0 | 1.6 | 0.00 | 0.69 | 0.56 | 84 | 1016.3 |
| 20260507202708 | 9 | 138 | 0.0 | 1.6 | 0.00 | 0.69 | 0.56 | 84 | 1016.3 |
| 20260507202209 | 9 | 138 | 0.0 | 3.2 | 0.00 | 0.69 | 0.56 | 84 | 1016.3 |
| 20260507201710 | 9 | 140 | 0.0 | 3.2 | 0.00 | 0.69 | 0.56 | 84 | 1016.3 |
| 20260507201209 | 10 | 140 | 0.0 | 1.6 | 0.00 | 0.69 | 0.56 | 84 | 1016.2 |
| 20260507200709 | 10 | 140 | 0.0 | 3.2 | 0.00 | 0.69 | 0.56 | 84 | 1016.2 |
| 20260507200209 | 10 | 140 | 0.0 | 3.2 | 0.00 | 0.69 | 0.56 | 84 | 1016.2 |
| 20260507195709 | 10 | 140 | 1.6 | 3.2 | 0.00 | 0.84 | 0.56 | 83 | 1016.1 |
| 20260507195209 | 10 | 100 | 0.0 | 1.6 | 0.00 | 0.84 | 0.56 | 82 | 1016.0 |
| 20260507194709 | 10 | 136 | 0.0 | 1.6 | 0.00 | 0.84 | 0.56 | 82 | 1016.1 |
| 20260507194210 | 10 | 137 | 0.0 | 1.6 | 0.00 | 0.84 | 0.56 | 81 | 1016.0 |
| 20260507193709 | 11 | 137 | 0.0 | 1.6 | 0.00 | 0.84 | 0.56 | 82 | 1016.0 |
| 20260507193210 | 11 | 138 | 1.6 | 3.2 | 0.00 | 0.84 | 0.56 | 81 | 1016.0 |
| 20260507192709 | 11 | 136 | 0.0 | 1.6 | 0.00 | 0.84 | 0.56 | 81 | 1015.9 |
| 20260507192209 | 11 | 138 | 0.0 | 1.6 | 0.00 | 0.84 | 0.56 | 80 | 1015.9 |
| 20260507191709 | 11 | 139 | 0.0 | 1.6 | 0.00 | 0.84 | 0.56 | 80 | 1015.9 |
| 20260507191209 | 11 | 125 | 1.6 | 1.6 | 0.00 | 0.84 | 0.56 | 79 | 1015.8 |
| 20260507190709 | 12 | 128 | 1.6 | 3.2 | 0.00 | 0.84 | 0.56 | 79 | 1015.7 |
| 20260507190208 | 12 | 81 | 1.6 | 3.2 | 0.00 | 0.84 | 0.56 | 79 | 1015.7 |
| 20260507185710 | 12 | 55 | 0.0 | 3.2 | 0.00 | 1.04 | 0.56 | 78 | 1015.6 |
| 20260507185208 | 12 | 53 | 1.6 | 3.2 | 0.00 | 1.04 | 0.56 | 78 | 1015.6 |
| 20260507184708 | 12 | 51 | 1.6 | 3.2 | 0.00 | 1.04 | 0.56 | 78 | 1015.6 |
| 20260507184209 | 13 | 37 | 1.6 | 3.2 | 0.00 | 1.04 | 0.56 | 77 | 1015.6 |
| 20260507183708 | 13 | 94 | 0.0 | 3.2 | 0.00 | 1.04 | 0.56 | 76 | 1015.5 |
| 20260507183209 | 13 | 80 | 0.0 | 1.6 | 0.00 | 1.04 | 0.56 | 76 | 1015.6 |
| 20260507182709 | 13 | 80 | 1.6 | 3.2 | 0.00 | 1.04 | 0.56 | 75 | 1015.5 |
| 20260507182209 | 13 | 5 | 0.0 | 1.6 | 0.00 | 1.04 | 0.56 | 74 | 1015.6 |
| 20260507181709 | 13 | 349 | 0.0 | 1.6 | 0.00 | 1.04 | 0.56 | 74 | 1015.5 |
| 20260507181209 | 13 | 346 | 0.0 | 0.0 | 0.00 | 1.04 | 0.56 | 74 | 1015.5 |
| 20260507180710 | 14 | 346 | 0.0 | 1.6 | 0.00 | 1.04 | 0.56 | 74 | 1015.4 |
| 20260507180209 | 14 | 324 | 1.6 | 6.4 | 0.00 | 1.04 | 0.56 | 73 | 1015.5 |
| 20260507175710 | 14 | 339 | 1.6 | 4.8 | 0.00 | 1.22 | 0.56 | 73 | 1015.5 |
| 20260507175210 | 14 | 334 | 1.6 | 3.2 | 0.00 | 1.22 | 0.56 | 73 | 1015.5 |
| 20260507174709 | 14 | 355 | 0.0 | 4.8 | 0.00 | 1.22 | 0.56 | 72 | 1015.4 |
| 20260507174209 | 14 | 344 | 0.0 | 4.8 | 0.00 | 1.22 | 0.56 | 72 | 1015.4 |
| 20260507173709 | 14 | 336 | 0.0 | 4.8 | 0.00 | 1.22 | 0.56 | 71 | 1015.4 |
| 20260507173209 | 15 | 59 | 3.2 | 4.8 | 0.00 | 1.22 | 0.56 | 72 | 1015.4 |
| 20260507172710 | 14 | 13 | 1.6 | 3.2 | 0.00 | 1.22 | 0.56 | 72 | 1015.3 |
| 20260507172209 | 14 | 64 | 1.6 | 4.8 | 0.00 | 1.22 | 0.56 | 72 | 1015.4 |
| 20260507171708 | 14 | 84 | 1.6 | 3.2 | 0.00 | 1.22 | 0.56 | 71 | 1015.4 |
| 20260507171210 | 14 | 46 | 1.6 | 6.4 | 0.00 | 1.22 | 0.56 | 71 | 1015.3 |
| 20260507170709 | 14 | 41 | 3.2 | 6.4 | 0.00 | 1.22 | 0.56 | 70 | 1015.3 |
| 20260507170208 | 15 | 34 | 1.6 | 3.2 | 0.00 | 1.22 | 0.56 | 71 | 1015.3 |
| 20260507165708 | 15 | 334 | 1.6 | 8.0 | 0.00 | 1.32 | 0.56 | 71 | 1015.3 |
| 20260507165208 | 15 | 63 | 0.0 | 8.0 | 0.00 | 1.32 | 0.56 | 71 | 1015.4 |
| 20260507164710 | 15 | 23 | 0.0 | 6.4 | 0.00 | 1.32 | 0.56 | 70 | 1015.4 |
| 20260507164209 | 15 | 61 | 1.6 | 6.4 | 0.00 | 1.32 | 0.56 | 71 | 1015.3 |
| 20260507163710 | 15 | 5 | 3.2 | 9.7 | 0.00 | 1.32 | 0.56 | 70 | 1015.3 |
| 20260507163209 | 15 | 355 | 3.2 | 6.4 | 0.00 | 1.32 | 0.56 | 70 | 1015.3 |
| 20260507162709 | 15 | 32 | 1.6 | 6.4 | 0.00 | 1.32 | 0.56 | 71 | 1015.3 |
| 20260507162209 | 15 | 191 | 1.6 | 6.4 | 0.00 | 1.32 | 0.56 | 72 | 1015.3 |
| 20260507161709 | 15 | 274 | 3.2 | 4.8 | 0.00 | 1.32 | 0.56 | 71 | 1015.3 |
| 20260507161210 | 15 | 348 | 1.6 | 8.0 | 0.00 | 1.32 | 0.56 | 68 | 1015.4 |
| 20260507160709 | 15 | 55 | 1.6 | 8.0 | 0.00 | 1.32 | 0.56 | 70 | 1015.4 |
| 20260507160210 | 15 | 74 | 1.6 | 6.4 | 0.00 | 1.32 | 0.56 | 69 | 1015.3 |
| 20260507155709 | 15 | 15 | 1.6 | 8.0 | 0.00 | 1.37 | 0.56 | 68 | 1015.3 |
| 20260507155209 | 15 | 5 | 3.2 | 8.0 | 0.00 | 1.37 | 0.56 | 68 | 1015.3 |
| 20260507154708 | 15 | 34 | 3.2 | 8.0 | 0.00 | 1.37 | 0.56 | 69 | 1015.3 |
| 20260507154209 | 15 | 331 | 3.2 | 6.4 | 0.00 | 1.37 | 0.56 | 72 | 1015.4 |
| 20260507153710 | 15 | 27 | 8.0 | 12.9 | 0.00 | 1.37 | 0.56 | 68 | 1015.3 |
| 20260507153209 | 15 | 137 | 3.2 | 8.0 | 0.00 | 1.37 | 0.56 | 71 | 1015.4 |
| 20260507152708 | 15 | 350 | 3.2 | 8.0 | 0.00 | 1.37 | 0.56 | 71 | 1015.4 |
| 20260507152209 | 15 | 349 | 4.8 | 9.7 | 0.00 | 1.37 | 0.56 | 71 | 1015.4 |
| 20260507151708 | 15 | 315 | 3.2 | 9.7 | 0.00 | 1.37 | 0.56 | 68 | 1015.5 |
| 20260507151209 | 15 | 33 | 1.6 | 8.0 | 0.00 | 1.37 | 0.56 | 71 | 1015.5 |
| 20260507150709 | 15 | 296 | 1.6 | 6.4 | 0.00 | 1.37 | 0.56 | 67 | 1015.5 |
| 20260507150209 | 15 | 122 | 3.2 | 11.3 | 0.00 | 1.37 | 0.56 | 68 | 1015.5 |
| 20260507145708 | 15 | 229 | 3.2 | 6.4 | 0.00 | 1.37 | 0.56 | 71 | 1015.4 |
| 20260507145209 | 15 | 57 | 1.6 | 8.0 | 0.00 | 1.37 | 0.56 | 71 | 1015.5 |
| 20260507144710 | 15 | 32 | 3.2 | 9.7 | 0.00 | 1.37 | 0.56 | 70 | 1015.5 |
| 20260507144209 | 15 | 302 | 3.2 | 8.0 | 0.00 | 1.37 | 0.56 | 74 | 1015.5 |
| 20260507143710 | 15 | 28 | 4.8 | 8.0 | 0.00 | 1.37 | 0.56 | 73 | 1015.4 |
| 20260507143209 | 15 | 20 | 3.2 | 11.3 | 0.00 | 1.37 | 0.56 | 72 | 1015.4 |
| 20260507142709 | 15 | 355 | 3.2 | 8.0 | 0.00 | 1.37 | 0.56 | 75 | 1015.5 |
| 20260507142209 | 14 | 300 | 1.6 | 4.8 | 0.00 | 1.37 | 0.56 | 74 | 1015.5 |
| 20260507141709 | 14 | 111 | 1.6 | 6.4 | 0.00 | 1.37 | 0.56 | 73 | 1015.6 |
| 20260507141209 | 14 | 118 | 3.2 | 9.7 | 0.00 | 1.37 | 0.56 | 76 | 1015.6 |
| 20260507140710 | 13 | 355 | 4.8 | 8.0 | 0.00 | 1.37 | 0.56 | 78 | 1015.6 |
| 20260507140209 | 13 | 13 | 3.2 | 8.0 | 0.00 | 1.37 | 0.56 | 80 | 1015.6 |
| 20260507135710 | 13 | 27 | 4.8 | 9.7 | 0.00 | 1.42 | 0.56 | 82 | 1015.6 |
| 20260507135210 | 13 | 53 | 3.2 | 8.0 | 0.00 | 1.42 | 0.56 | 82 | 1015.6 |
| 20260507134709 | 13 | 35 | 4.8 | 8.0 | 0.00 | 1.42 | 0.56 | 83 | 1015.7 |
| 20260507134210 | 13 | 24 | 1.6 | 8.0 | 0.00 | 1.42 | 0.56 | 83 | 1015.7 |
| 20260507133709 | 13 | 143 | 1.6 | 3.2 | 0.00 | 1.42 | 0.56 | 82 | 1015.8 |
| 20260507133209 | 13 | 94 | 0.0 | 4.8 | 0.00 | 1.42 | 0.56 | 81 | 1015.8 |
| 20260507132710 | 13 | 68 | 0.0 | 8.0 | 0.00 | 1.42 | 0.56 | 81 | 1015.8 |
| 20260507132209 | 13 | 277 | 0.0 | 6.4 | 0.00 | 1.42 | 0.56 | 81 | 1015.8 |
| 20260507131710 | 13 | 71 | 3.2 | 6.4 | 0.00 | 1.42 | 0.56 | 80 | 1015.8 |
| 20260507131208 | 13 | 335 | 3.2 | 4.8 | 0.00 | 1.42 | 0.56 | 80 | 1015.8 |
| 20260507130710 | 14 | 267 | 1.6 | 4.8 | 0.00 | 1.42 | 0.56 | 79 | 1015.7 |
| 20260507130210 | 14 | 144 | 3.2 | 11.3 | 0.00 | 1.42 | 0.56 | 78 | 1015.7 |
| 20260507125709 | 14 | 128 | 3.2 | 9.7 | 0.00 | 1.47 | 0.56 | 76 | 1015.7 |
| 20260507125210 | 14 | 327 | 1.6 | 9.7 | 0.00 | 1.47 | 0.56 | 75 | 1015.6 |
| 20260507124709 | 15 | 329 | 1.6 | 8.0 | 0.00 | 1.47 | 0.56 | 75 | 1015.6 |
| 20260507124210 | 15 | 350 | 0.0 | 6.4 | 0.00 | 1.47 | 0.56 | 73 | 1015.6 |
| 20260507123710 | 15 | 343 | 3.2 | 6.4 | 0.00 | 1.47 | 0.56 | 72 | 1015.6 |
| 20260507123210 | 15 | 209 | 1.6 | 6.4 | 0.00 | 1.47 | 0.56 | 72 | 1015.5 |
| 20260507122710 | 15 | 313 | 1.6 | 6.4 | 0.00 | 1.47 | 0.56 | 70 | 1015.4 |
| 20260507122209 | 15 | 209 | 3.2 | 8.0 | 0.00 | 1.47 | 0.56 | 71 | 1015.4 |
| 20260507121709 | 15 | 267 | 4.8 | 9.7 | 0.00 | 1.47 | 0.56 | 71 | 1015.4 |
| 20260507121210 | 15 | 227 | 0.0 | 6.4 | 0.00 | 1.47 | 0.56 | 71 | 1015.4 |
| 20260507120710 | 15 | 263 | 3.2 | 8.0 | 0.00 | 1.47 | 0.56 | 69 | 1015.3 |
| 20260507120208 | 15 | 244 | 6.4 | 8.0 | 0.00 | 1.47 | 0.56 | 68 | 1015.3 |
| 20260507115709 | 15 | 219 | 0.0 | 4.8 | 0.00 | 1.50 | 0.56 | 69 | 1015.3 |
| 20260507115208 | 15 | 130 | 3.2 | 4.8 | 0.00 | 1.50 | 0.56 | 68 | 1015.3 |
| 20260507114708 | 15 | 182 | 1.6 | 4.8 | 0.00 | 1.50 | 0.56 | 69 | 1015.2 |
| 20260507114210 | 15 | 189 | 1.6 | 6.4 | 0.00 | 1.50 | 0.56 | 71 | 1015.3 |
| 20260507113708 | 15 | 186 | 3.2 | 8.0 | 0.00 | 1.50 | 0.56 | 68 | 1015.3 |
| 20260507113209 | 15 | 254 | 4.8 | 9.7 | 0.00 | 1.50 | 0.56 | 67 | 1015.3 |
| 20260507112709 | 15 | 244 | 4.8 | 9.7 | 0.00 | 1.50 | 0.56 | 67 | 1015.2 |
| 20260507112209 | 15 | 267 | 4.8 | 8.0 | 0.00 | 1.50 | 0.56 | 69 | 1015.2 |
| 20260507111709 | 15 | 201 | 3.2 | 9.7 | 0.00 | 1.50 | 0.56 | 68 | 1015.2 |
| 20260507111210 | 15 | 246 | 1.6 | 6.4 | 0.00 | 1.50 | 0.56 | 72 | 1015.2 |
| 20260507110709 | 15 | 272 | 3.2 | 11.3 | 0.03 | 1.50 | 0.56 | 72 | 1015.2 |
| 20260507110210 | 15 | 170 | 4.8 | 8.0 | 0.03 | 1.50 | 0.56 | 75 | 1015.3 |
| 20260507105710 | 14 | 192 | 1.6 | 11.3 | 0.03 | 1.50 | 0.56 | 73 | 1015.3 |
| 20260507105210 | 14 | 104 | 3.2 | 8.0 | 0.03 | 1.50 | 0.56 | 74 | 1015.3 |
| 20260507104710 | 14 | 211 | 4.8 | 9.7 | 0.03 | 1.50 | 0.56 | 75 | 1015.4 |
| 20260507104210 | 14 | 153 | 3.2 | 8.0 | 0.03 | 1.50 | 0.56 | 73 | 1015.4 |
| 20260507103710 | 14 | 148 | 6.4 | 9.7 | 0.03 | 1.50 | 0.56 | 72 | 1015.4 |
| 20260507103210 | 13 | 179 | 6.4 | 8.0 | 0.03 | 1.50 | 0.56 | 73 | 1015.4 |
| 20260507102710 | 13 | 286 | 4.8 | 11.3 | 0.03 | 1.50 | 0.56 | 77 | 1015.4 |
| 20260507102210 | 13 | 190 | 6.4 | 8.0 | 0.03 | 1.50 | 0.56 | 74 | 1015.4 |
| 20260507101709 | 13 | 139 | 1.6 | 6.4 | 0.03 | 1.50 | 0.56 | 75 | 1015.4 |
| 20260507101209 | 13 | 263 | 4.8 | 9.7 | 0.03 | 1.50 | 0.56 | 76 | 1015.4 |
| 20260507100709 | 13 | 156 | 1.6 | 6.4 | 0.00 | 1.47 | 0.53 | 77 | 1015.4 |
| 20260507100208 | 13 | 180 | 6.4 | 8.0 | 0.00 | 1.47 | 0.53 | 76 | 1015.4 |
| 20260507095709 | 13 | 265 | 3.2 | 8.0 | 0.00 | 1.47 | 0.53 | 80 | 1015.4 |
| 20260507095209 | 13 | 200 | 3.2 | 6.4 | 0.00 | 1.47 | 0.53 | 78 | 1015.4 |
| 20260507094709 | 13 | 143 | 1.6 | 8.0 | 0.00 | 1.47 | 0.53 | 78 | 1015.4 |
| 20260507094209 | 13 | 232 | 4.8 | 9.7 | 0.00 | 1.47 | 0.53 | 79 | 1015.3 |
| 20260507093708 | 13 | 132 | 3.2 | 9.7 | 0.00 | 1.47 | 0.53 | 81 | 1015.4 |
| 20260507093210 | 13 | 180 | 3.2 | 8.0 | 0.00 | 1.47 | 0.53 | 79 | 1015.3 |
| 20260507092709 | 13 | 262 | 4.8 | 9.7 | 0.00 | 1.47 | 0.53 | 81 | 1015.2 |
| 20260507092209 | 12 | 227 | 4.8 | 11.3 | 0.00 | 1.47 | 0.53 | 82 | 1015.3 |
| 20260507091710 | 12 | 215 | 1.6 | 8.0 | 0.00 | 1.47 | 0.53 | 85 | 1015.2 |
| 20260507091210 | 12 | 201 | 6.4 | 8.0 | 0.00 | 1.47 | 0.53 | 85 | 1015.2 |
| 20260507090710 | 12 | 172 | 3.2 | 9.7 | 0.00 | 1.47 | 0.53 | 86 | 1015.2 |
| 20260507090210 | 12 | 186 | 4.8 | 12.9 | 0.00 | 1.47 | 0.53 | 86 | 1015.1 |
| 20260507085709 | 12 | 273 | 4.8 | 9.7 | 0.00 | 1.47 | 0.53 | 87 | 1015.0 |
| 20260507085210 | 12 | 223 | 4.8 | 8.0 | 0.00 | 1.47 | 0.53 | 87 | 1015.1 |
| 20260507084709 | 12 | 232 | 4.8 | 9.7 | 0.00 | 1.47 | 0.53 | 87 | 1015.0 |
| 20260507084210 | 12 | 239 | 4.8 | 8.0 | 0.00 | 1.47 | 0.53 | 88 | 1015.0 |
| 20260507083710 | 12 | 243 | 3.2 | 11.3 | 0.00 | 1.47 | 0.53 | 89 | 1015.0 |
| 20260507083209 | 11 | 212 | 3.2 | 6.4 | 0.00 | 1.47 | 0.53 | 88 | 1015.0 |
| 20260507082709 | 12 | 237 | 6.4 | 9.7 | 0.00 | 1.47 | 0.53 | 89 | 1015.0 |
| 20260507082210 | 11 | 225 | 4.8 | 11.3 | 0.00 | 1.47 | 0.53 | 89 | 1014.9 |
| 20260507081708 | 11 | 181 | 3.2 | 6.4 | 0.00 | 1.47 | 0.53 | 90 | 1014.9 |
| 20260507081210 | 11 | 173 | 3.2 | 4.8 | 0.00 | 1.47 | 0.53 | 90 | 1014.9 |
| 20260507080709 | 11 | 235 | 3.2 | 9.7 | 0.00 | 1.47 | 0.53 | 90 | 1014.8 |
| 20260507080209 | 11 | 231 | 3.2 | 6.4 | 0.00 | 1.47 | 0.53 | 90 | 1014.8 |
| 20260507075709 | 11 | 227 | 4.8 | 9.7 | 0.00 | 1.47 | 0.53 | 91 | 1014.8 |
| 20260507075209 | 11 | 213 | 3.2 | 9.7 | 0.00 | 1.47 | 0.53 | 90 | 1014.7 |
| 20260507074709 | 11 | 228 | 3.2 | 8.0 | 0.00 | 1.47 | 0.53 | 91 | 1014.7 |
| 20260507074208 | 11 | 239 | 4.8 | 9.7 | 0.00 | 1.47 | 0.53 | 91 | 1014.6 |
| 20260507073709 | 11 | 232 | 1.6 | 6.4 | 0.00 | 1.47 | 0.53 | 91 | 1014.5 |
| 20260507073210 | 11 | 223 | 4.8 | 6.4 | 0.00 | 1.47 | 0.53 | 91 | 1014.5 |
| 20260507072708 | 11 | 162 | 4.8 | 9.7 | 0.00 | 1.47 | 0.53 | 91 | 1014.5 |
| 20260507072210 | 11 | 252 | 4.8 | 9.7 | 0.00 | 1.47 | 0.53 | 91 | 1014.4 |
| 20260507071710 | 11 | 186 | 3.2 | 8.0 | 0.00 | 1.47 | 0.53 | 92 | 1014.4 |
| 20260507071209 | 11 | 223 | 4.8 | 8.0 | 0.00 | 1.47 | 0.53 | 92 | 1014.4 |
| 20260507070710 | 11 | 159 | 3.2 | 9.7 | 0.00 | 1.47 | 0.53 | 91 | 1014.4 |
| 20260507070209 | 11 | 142 | 6.4 | 11.3 | 0.00 | 1.47 | 0.53 | 91 | 1014.3 |
| 20260507065710 | 11 | 196 | 4.8 | 8.0 | 0.00 | 1.47 | 0.53 | 92 | 1014.3 |
| 20260507065210 | 11 | 261 | 4.8 | 8.0 | 0.00 | 1.47 | 0.53 | 92 | 1014.2 |
| 20260507064710 | 10 | 229 | 1.6 | 4.8 | 0.03 | 1.47 | 0.53 | 92 | 1014.2 |
| 20260507064210 | 10 | 174 | 3.2 | 6.4 | 0.03 | 1.47 | 0.53 | 92 | 1014.2 |
| 20260507063709 | 10 | 206 | 3.2 | 6.4 | 0.03 | 1.47 | 0.53 | 92 | 1014.1 |